User: anonymous
Location: Unspecified
(0.0000°N, 0.0000°E)
Time: 06:57:06
(UTC+00:00)
Language:

Alouette 1 - Orbit

View from above orbital plane
View from above orbital plane
View from above satellite
View from above satellite

Ground track
Ground track

The orbit data is extracted from the following two-line orbital elements,

1 00424U 62049A   14244.40353797  .00000044  00000-0  40711-4 0  5029
2 00424 080.4686 195.3024 0022835 181.8475 298.3508 13.68954922591933
Epoch (UTC): 01 September 2014 09:41:05
Eccentricity: 0.0022835
inclination: 80.4686°
perigee height: 986 km
apogee height: 1020 km
right ascension of ascending node: 195.3024°
argument of perigee: 181.8475°
revolutions per day: 13.68954922
mean anomaly at epoch: 298.3508°
orbit number at epoch: 59193

The dashed part of the orbit path shows where the satellite is in the earth's shadow,  

DLR